Record,Date/Time,10,Tamb(K),Rh(%),Pres(mb),Tir(K),Rain,Az(deg),El(deg),TkBB(K), Ch  22.234, Ch  23.034, Ch  23.834, Ch  26.234, Ch  30.000, Ch  51.248, Ch  52.280, Ch  53.848, Ch  54.940, Ch  56.660, Ch  57.288, Ch  58.800, Ch 
Record,Date/Time,40,Tamb(K),Rh(%),Pres(mb),Tir(K),Rain
Record,Date/Time,50,Az(deg),El(deg),TkBB(K), Ch  22.000, Ch  22.234, Ch  22.500, Ch  23.000, Ch  23.034, Ch  23.500, Ch  23.834, Ch  24.000, Ch  24.500, Ch  25.000, Ch  25.500, Ch  26.000, Ch  26.234, Ch  26.500, Ch  27.000, Ch  27.500, Ch  28.000, Ch  28.500, Ch  29.000, Ch  29.500, Ch  30.000, Ch  51.248, Ch  51.760, Ch  52.280, Ch  52.804, Ch  53.336, Ch  53.848, Ch  54.400, Ch  54.940, Ch  55.500, Ch  56.020, Ch  56.660, Ch  57.288, Ch  57.964, Ch  58.800, Ch 
Record,Date/Time,80,ID,SNR,Tamb(K),Rh(%),Pres(mb),Tir(K),Rain,Az(deg),El(deg),TkBB(K), Ch  22.234, Ch  23.034, Ch  23.834, Ch  26.234, Ch  30.000, Ch  51.248, Ch  52.280, Ch  53.848, Ch  54.940, Ch  56.660, Ch  57.288, Ch  58.800, Ch 
     1,02/02/18 19:39:45,41, 281.6750,  45.1000, 833.7000, 198.1800,0
     2,02/02/18 19:41:52,51,  0.00, 14.85,292.869,,163.351,162.779,,162.403,,149.680,,,135.593,,,128.172,,,,122.654,,,,150.985,265.043,268.869,273.731,277.909,280.846,282.323,283.037,283.035,283.051,282.441,282.790,283.015,283.128,282.512,
     3,02/02/18 19:42:08,51,  0.00, 90.00,293.013,, 10.449,  4.113,,  3.195,, -9.935,,,-23.954,,,-39.805,,,,-52.075,,,,-27.977, 77.843, 93.177,115.914,146.387,185.546,224.092,256.532,271.930,277.283,278.479,280.459,280.817,281.524,281.727,
     4,02/02/18 19:42:25,51,  0.00,165.15,293.079,, 83.627, 75.448,, 76.553,, 54.136,,, 28.983,,,  5.820,,,,-12.005,,,, 11.905,206.761,224.442,244.280,262.356,274.249,279.092,281.523,282.383,282.805,282.226,282.533,282.152,282.729,282.221,
     5,02/02/18 19:42:35,41, 281.7180,  43.3400, 833.4000, 220.3600,0
     6,02/02/18 19:44:41,51,  0.00, 14.85,293.596,,174.755,166.904,,170.956,,162.952,,,155.458,,,151.754,,,,158.795,,,,162.625,265.112,269.347,273.703,278.247,281.527,282.278,283.153,283.390,282.948,282.893,283.137,283.888,283.531,283.302,
     7,02/02/18 19:44:58,51,  0.00, 90.00,293.710,, 19.072, 13.404,, 12.145,,  5.080,,,-10.283,,,-11.911,,,, -6.742,,,,  6.589, 77.750, 93.906,115.989,146.080,185.617,223.954,256.475,272.036,277.588,279.788,280.582,281.816,282.130,281.678,
     8,02/02/18 19:45:15,51,  0.00,165.15,293.809,, 88.056, 83.284,, 78.624,, 57.773,,, 38.695,,, 31.412,,,, 36.130,,,, 46.535,209.300,226.594,245.616,262.775,274.616,279.341,281.664,282.510,282.478,282.499,282.116,283.118,283.016,282.424,
     9,02/02/18 19:45:24,41, 282.1520,  44.0000, 833.4000, 241.4500,0
    10,02/02/18 19:47:30,51,  0.00, 14.85,294.332,,168.424,160.484,,162.264,,161.023,,,145.334,,,143.617,,,,151.218,,,,165.715,265.472,269.104,273.917,278.484,281.353,282.636,282.772,283.514,283.205,283.582,283.314,283.501,282.734,283.416,
    11,02/02/18 19:47:47,51,  0.00, 90.00,294.353,, 21.027, 16.014,, 17.144,, 16.756,,, -2.036,,,  1.816,,,,  3.453,,,, 13.185, 77.683, 93.309,115.826,145.997,185.421,223.906,255.916,271.963,277.234,279.581,280.718,281.399,281.153,281.793,
    12,02/02/18 19:48:04,51,  0.00,165.15,294.431,, 85.231, 86.215,, 80.883,, 65.823,,, 37.214,,, 22.184,,,, 15.504,,,, 37.384,207.878,225.378,244.441,262.116,274.177,279.320,281.498,282.306,282.385,282.576,282.564,282.940,282.663,282.655,
    13,02/02/18 19:48:13,41, 282.5110,  42.6400, 833.2000, 245.3800,0
    14,02/02/18 19:50:20,51,  0.00, 14.85,294.923,,168.161,169.065,,170.015,,160.720,,,144.238,,,151.367,,,,151.616,,,,170.789,265.720,269.915,274.260,279.075,281.595,283.167,283.421,283.091,283.966,283.472,283.229,283.930,284.056,283.772,
    15,02/02/18 19:50:37,51,  0.00, 90.00,295.029,, 32.470, 34.238,, 34.849,, 26.411,,, 13.388,,, 17.069,,,, 12.878,,,, 10.177, 77.385, 93.771,115.826,146.058,185.442,224.153,256.630,271.762,278.084,280.220,281.137,281.886,282.482,282.364,
    16,02/02/18 19:50:54,51,  0.00,165.15,295.089,,114.886,113.419,,104.774,, 91.261,,, 64.339,,, 55.114,,,, 47.489,,,, 44.168,204.347,222.912,243.046,261.652,274.200,279.398,281.719,282.230,283.134,283.181,283.155,283.105,283.588,282.844,
    17,02/02/18 19:51:04,41, 282.9450,  41.6800, 833.1000, 246.2900,0
    18,02/02/18 19:53:12,51,  0.00, 14.85,295.547,,176.283,180.260,,177.593,,170.891,,,161.599,,,160.470,,,,166.260,,,,169.887,265.739,270.069,274.586,278.427,281.513,283.162,283.441,284.000,283.620,283.866,284.068,284.194,284.320,283.970,
    19,02/02/18 19:53:29,51,  0.00, 90.00,295.640,, 26.899, 29.440,, 22.726,, 17.588,,,  9.549,,,  7.144,,,, 12.165,,,, 15.236, 79.249, 95.454,117.270,146.880,186.021,224.467,256.495,272.144,277.527,279.652,281.367,281.778,282.743,282.547,
    20,02/02/18 19:53:46,51,  0.00,165.15,295.755,, 96.440, 95.057,, 85.893,, 67.530,,, 49.672,,, 41.105,,,, 43.317,,,, 42.910,201.949,221.258,242.049,260.694,274.050,279.790,281.403,282.680,283.069,282.776,283.463,283.580,283.843,283.397,
    21,02/02/18 19:53:55,41, 283.7380,  40.3400, 833.1000, 246.8100,0
    22,02/02/18 19:56:02,51,  0.00, 14.85,296.191,,175.928,174.603,,180.024,,173.693,,,167.840,,,164.467,,,,166.993,,,,169.504,266.239,270.749,275.076,278.859,281.742,283.259,283.703,284.096,283.802,283.792,283.954,284.183,284.352,284.345,
    23,02/02/18 19:56:19,51,  0.00, 90.00,296.329,, 24.148, 23.027,, 23.355,, 21.736,,, 10.918,,, 11.883,,,,  9.989,,,, 14.119, 77.823, 94.181,116.228,146.231,185.412,223.902,256.479,272.126,277.572,279.892,281.137,282.072,282.084,282.554,
    24,02/02/18 19:56:36,51,  0.00,165.15,296.368,, 88.411, 93.561,, 85.091,, 68.737,,, 46.199,,, 41.891,,,, 37.701,,,, 41.155,201.543,221.240,241.903,261.002,274.290,279.625,281.359,282.640,282.644,282.722,282.961,283.187,283.188,283.815,
    25,02/02/18 19:56:44,41, 284.4060,  39.7000, 833.0000, 234.2600,0
    26,02/02/18 19:58:51,51,  0.00, 14.85,296.812,,177.964,181.302,,176.826,,172.878,,,166.894,,,164.219,,,,167.928,,,,172.806,267.168,270.985,275.129,279.151,282.303,283.316,284.180,284.248,284.354,283.677,284.061,284.560,284.579,284.753,
    27,02/02/18 19:59:08,51,  0.00, 90.00,296.898,, 23.605, 32.147,, 21.371,, 19.967,,, 17.872,,, 12.532,,,, 13.377,,,, 14.578, 77.477, 93.344,115.721,145.737,185.241,224.064,256.508,272.319,277.555,279.033,280.754,281.775,282.447,282.367,
    28,02/02/18 19:59:25,51,  0.00,165.15,296.958,, 91.811,102.210,, 89.397,, 68.312,,, 56.064,,, 44.562,,,, 40.134,,,, 42.274,201.932,220.808,241.906,261.332,274.582,279.770,282.093,283.012,283.017,282.704,283.068,283.559,283.749,283.703,
    29,02/02/18 19:59:34,41, 284.5030,  38.7700, 833.0000, 217.2100,0
    30,02/02/18 20:01:41,51,  0.00, 14.85,297.299,,173.467,181.499,,179.341,,175.974,,,164.343,,,169.100,,,,165.154,,,,173.221,266.766,270.596,275.198,279.453,282.455,283.364,284.592,284.148,284.494,284.639,284.419,284.696,284.229,284.287,
    31,02/02/18 20:01:58,51,  0.00, 90.00,297.334,, 25.206, 27.907,, 26.602,, 22.680,,, 11.875,,, 13.953,,,, 12.062,,,, 14.605, 77.467, 93.653,116.049,146.203,185.663,224.069,256.982,271.951,278.234,279.590,281.114,281.985,282.230,282.400,
    32,02/02/18 20:02:15,51,  0.00,165.15,297.377,, 91.895, 96.203,, 94.222,, 80.382,,, 52.688,,, 48.508,,,, 41.162,,,, 44.689,203.053,221.981,242.512,261.292,274.311,279.613,281.842,281.824,282.865,282.568,282.608,282.813,283.040,282.602,
    33,02/02/18 20:02:23,41, 284.3940,  38.4200, 833.0000, 215.9800,0
    34,02/02/18 20:04:30,51,  0.00, 14.85,297.554,,179.553,177.782,,177.251,,175.185,,,165.698,,,161.857,,,,166.672,,,,172.296,267.274,270.896,275.803,279.554,282.501,283.698,284.132,284.404,285.370,285.040,284.171,283.995,284.322,283.852,
    35,02/02/18 20:04:47,51,  0.00, 90.00,297.555,, 26.391, 25.993,, 29.860,, 20.182,,, 12.241,,, 10.421,,,,  8.871,,,, 13.938, 77.950, 93.545,115.900,145.857,185.436,223.742,255.918,271.571,277.103,279.367,279.884,280.597,281.228,281.184,
    36,02/02/18 20:05:04,51,  0.00,165.15,297.587,, 91.933, 95.804,, 88.977,, 75.852,,, 50.383,,, 44.893,,,, 40.048,,,, 44.223,202.683,221.356,242.272,260.656,273.574,278.371,280.802,281.399,281.271,281.661,281.190,281.511,281.433,281.443,
    37,02/02/18 20:05:13,41, 283.8780,  42.1000, 833.2000, 207.9200,0
    38,02/02/18 20:07:19,51,  0.00, 14.85,297.509,,183.909,178.906,,176.301,,168.015,,,160.395,,,158.312,,,,164.041,,,,173.515,267.889,271.929,275.604,279.287,281.988,283.088,283.336,284.173,284.413,283.350,283.996,284.294,283.638,283.448,
    39,02/02/18 20:07:36,51,  0.00, 90.00,297.515,, 26.436, 22.986,, 22.361,, 13.542,,,  7.680,,,  4.065,,,,  6.028,,,, 12.770, 77.892, 94.388,115.927,146.111,185.415,223.816,255.581,271.425,276.623,278.276,279.572,280.270,279.887,279.843,
    40,02/02/18 20:07:53,51,  0.00,165.15,297.494,, 93.644, 89.696,, 91.036,, 68.533,,, 50.346,,, 43.764,,,, 37.807,,,, 41.031,202.174,221.825,241.814,260.774,273.722,278.583,280.367,281.102,281.561,281.146,280.982,281.374,281.056,281.078,
    41,02/02/18 20:08:01,41, 283.1520,  45.0500, 833.4000, 205.9200,0
    42,02/02/18 20:10:08,51,  0.00, 14.85,297.361,,159.293,159.299,,161.327,,146.878,,,137.400,,,138.749,,,,170.121,,,,204.721,267.083,270.320,275.015,279.019,281.876,282.768,283.519,283.374,283.623,283.137,283.341,283.954,283.942,283.572,
    43,02/02/18 20:10:25,51,  0.00, 90.00,297.381,, 33.021, 34.898,, 36.168,, 32.408,,, 27.712,,, 30.365,,,, 19.920,,,, -6.391, 77.604, 92.923,115.347,145.749,185.051,223.685,256.187,271.211,276.824,277.936,279.805,280.242,280.552,280.432,
    44,02/02/18 20:10:42,51,  0.00,165.15,297.385,, 97.424, 96.093,, 94.920,, 80.644,,, 62.764,,, 60.214,,,, 44.243,,,, 22.685,201.628,220.176,241.386,260.140,273.151,278.181,279.894,280.897,281.416,281.153,281.086,281.109,280.954,281.070,
    45,02/02/18 20:10:51,41, 282.5000,  47.1700, 833.3000, 208.1800,0
    46,02/02/18 20:12:57,51,  0.00, 14.85,297.249,,146.227,148.405,,148.368,,124.076,,,113.688,,,120.294,,,,171.048,,,,234.474,266.737,270.462,275.063,279.170,281.656,283.276,283.550,283.854,282.845,283.198,283.484,283.826,283.817,282.890,
    47,02/02/18 20:13:14,51,  0.00, 90.00,297.262,, 29.339, 27.930,, 26.687,, 18.958,,, 15.157,,, 13.054,,,,  9.763,,,, 11.553, 77.946, 93.187,115.829,145.606,185.175,223.666,255.692,271.281,276.180,278.169,279.986,280.502,280.749,280.490,
    48,02/02/18 20:13:31,51,  0.00,165.15,297.248,, 91.918, 93.607,, 90.357,, 64.057,,, 33.553,,, 29.025,,,, 53.154,,,,100.886,201.904,220.608,241.593,259.873,272.928,278.302,279.774,281.340,280.376,280.746,280.947,281.611,281.257,280.920,
    49,02/02/18 20:13:40,41, 281.9020,  49.3000, 833.4000, 206.1300,0
    50,02/02/18 20:15:47,51,  0.00, 14.85,297.048,,175.177,181.206,,179.374,,167.079,,,169.695,,,162.898,,,,166.772,,,,170.541,266.919,270.894,274.765,278.851,281.532,282.598,283.502,283.748,283.633,283.590,282.989,283.634,283.595,283.522,
    51,02/02/18 20:16:04,51,  0.00, 90.00,297.052,, 26.548, 26.862,, 24.281,, 13.628,,, 14.942,,,  8.063,,,, 11.339,,,, 12.299, 77.897, 93.757,115.678,145.416,184.944,223.164,256.009,271.315,276.548,278.795,279.950,280.897,280.912,281.374,
    52,02/02/18 20:16:21,51,  0.00,165.15,297.063,, 90.940, 93.613,, 85.354,, 69.478,,, 57.099,,, 44.506,,,, 39.108,,,, 40.598,201.213,220.450,240.975,260.036,273.059,277.846,280.661,281.005,280.676,281.137,280.772,281.297,280.797,281.262,
    53,02/02/18 20:16:30,41, 281.6750,  49.0900, 833.3000, 202.9700,0
    54,02/02/18 20:18:37,51,  0.00, 14.85,296.894,,183.537,175.930,,184.037,,173.479,,,165.920,,,163.832,,,,167.647,,,,171.282,266.383,270.588,274.309,278.643,281.744,282.812,283.053,283.348,282.909,283.305,283.125,283.814,283.672,283.416,
    55,02/02/18 20:18:53,51,  0.00, 90.00,296.884,, 24.390, 23.468,, 25.322,, 14.774,,, 10.942,,,  8.621,,,, 13.289,,,, 15.362, 77.473, 93.665,115.463,145.337,184.986,222.996,255.199,271.016,276.231,278.386,279.610,280.439,280.863,280.596,
    56,02/02/18 20:19:10,51,  0.00,165.15,296.846,, 92.333, 90.874,, 91.459,, 69.487,,, 54.638,,, 40.928,,,, 42.142,,,, 45.585,200.925,220.507,241.114,259.801,273.164,277.827,279.995,280.648,281.112,280.844,281.126,281.395,281.438,280.922,
    57,02/02/18 20:19:19,41, 281.6640,  48.2500, 833.2000, 200.7900,0
    58,02/02/18 20:21:26,51,  0.00, 14.85,296.745,,185.091,183.185,,182.007,,174.647,,,163.230,,,167.063,,,,165.889,,,,167.933,266.399,269.802,274.468,278.613,281.680,282.706,283.281,283.887,282.825,282.864,283.530,283.459,283.312,283.630,
    59,02/02/18 20:21:43,51,  0.00, 90.00,296.777,, 29.522, 29.617,, 24.218,, 20.199,,,  8.881,,, 14.024,,,, 12.144,,,, 13.885, 77.707, 93.143,115.483,145.777,184.625,223.272,255.687,271.712,277.011,278.633,279.822,280.735,280.746,281.057,
    60,02/02/18 20:21:59,51,  0.00,165.15,296.773,, 99.339, 94.114,, 87.938,, 72.708,,, 51.651,,, 47.166,,,, 43.834,,,, 44.912,201.350,220.268,240.997,260.133,273.041,278.123,280.405,281.444,280.971,280.782,281.220,281.308,281.377,280.967,
    61,02/02/18 20:22:08,41, 281.4960,  49.3000, 833.2000, 201.7700,0
    62,02/02/18 20:24:15,51,  0.00, 14.85,296.601,,177.985,185.845,,178.875,,170.500,,,165.152,,,161.624,,,,164.280,,,,172.340,265.819,269.863,274.467,278.327,281.629,282.574,283.255,283.429,283.089,283.149,283.320,283.317,283.246,283.494,
    63,02/02/18 20:24:32,51,  0.00, 90.00,296.679,, 28.019, 29.281,, 23.850,, 15.426,,,  9.868,,, 11.737,,,, 10.160,,,, 11.818, 76.868, 92.967,114.798,145.040,184.555,223.153,255.731,271.187,276.444,278.118,279.605,279.862,280.357,280.851,
    64,02/02/18 20:24:49,51,  0.00,165.15,296.700,, 85.096, 89.762,, 78.660,, 54.904,,, 33.436,,, 29.421,,,, 41.417,,,, 83.808,203.805,222.089,242.096,260.033,272.961,278.412,280.263,281.142,280.895,280.797,281.147,281.263,281.323,281.129,
    65,02/02/18 20:24:58,41, 281.4140,  49.1900, 833.0000, 200.4700,0
    66,02/02/18 20:27:04,51,  0.00, 14.85,296.645,,172.689,170.618,,169.272,,164.799,,,152.213,,,156.857,,,,160.934,,,,176.645,266.310,270.048,274.341,278.559,280.934,282.569,282.880,283.097,283.079,282.580,283.094,283.395,283.458,282.805,
    67,02/02/18 20:27:21,51,  0.00, 90.00,296.606,, 19.803, 17.658,, 17.819,, 10.514,,,  5.565,,,  2.791,,,,  5.404,,,, 11.727, 76.915, 93.213,114.982,145.810,184.554,223.319,256.050,270.923,276.364,278.629,279.999,280.151,280.867,280.519,
    68,02/02/18 20:27:38,51,  0.00,165.15,296.594,, 90.763, 83.776,, 85.401,, 63.019,,, 44.189,,, 33.363,,,, 36.647,,,, 60.193,203.165,221.553,241.736,260.391,272.696,278.024,280.159,280.537,280.650,280.984,280.427,280.682,281.213,280.636,
    69,02/02/18 20:27:48,41, 281.1910,  50.9400, 833.0000, 201.8900,0
    70,02/02/18 20:29:55,51,  0.00, 14.85,296.470,,177.542,178.834,,180.051,,172.504,,,162.557,,,164.831,,,,165.436,,,,171.089,266.159,270.079,274.672,278.561,281.514,282.639,283.110,283.329,282.717,282.532,283.076,283.105,283.101,282.920,
    71,02/02/18 20:30:12,51,  0.00, 90.00,296.493,, 25.958, 25.513,, 25.889,, 20.527,,, 10.290,,, 14.183,,,,  8.415,,,, 13.547, 76.915, 92.717,114.898,145.356,184.463,223.414,255.790,271.254,276.653,278.626,279.745,280.178,280.368,280.804,
    72,02/02/18 20:30:29,51,  0.00,165.15,296.529,, 96.053, 97.038,, 96.646,, 72.793,,, 57.467,,, 55.981,,,, 48.124,,,, 53.822,207.376,224.482,244.087,261.135,273.063,277.819,279.752,280.589,280.376,280.121,280.226,280.530,280.394,280.404,
    73,02/02/18 20:30:38,41, 281.0070,  51.1800, 832.9000, 219.0000,0
